Location: Unspecified
(36.9193°S, 174.7252°E)
Time: 19:05:32
(UTC+13:00)

Envisat - Pass Details

Date: 27 September 2021
Orbit: 764 x 766 km, 98.2° (Epoch: 15 October)

Event Time Altitude Azimuth Distance (km) Brightness Sun altitude
Rises 06:03:28 0° 2° (N) 3,219 6.1 -12.7°
Reaches altitude 10° 06:05:48 10° 357° (N) 2,301 5.3 -12.3°
Maximum altitude 06:10:45 54° 280° (W) 941 3.1 -11.3°
Drops below altitude 10° 06:15:47 10° 203° (SSW) 2,333 5.4 -10.3°
Sets 06:18:11 0° 197° (SSW) 3,267 6.2 -9.8°
